Location: Newark
(52.3500°N, 175.9667°E)
Time: 06:15:39
(UTC+00:00)

S-56A Canister/Altair - Pass Details

Date: 27 April 2021
Orbit: 631 x 2501 km, 38.9° (Epoch: 12 May)

Event Time Altitude Azimuth Distance (km) Brightness Sun altitude
Rises 09:54:11 0° 234° (SW) 5,407 11.9 -17.2°
Reaches altitude 10° 09:58:42 10° 225° (SW) 4,096 11.1 -17.6°
Maximum altitude 10:06:58 29° 172° (S) 2,308 9.4 -18.2°
Enters shadow 10:08:31 27° 154° (SSE) 2,268 9.3 -18.4°
Drops below altitude 10° 10:12:59 10° 116° (ESE) 2,916 - -18.7°
Sets 10:15:37 0° 104° (ESE) 3,647 - -18.9°
